TUI7GM LGIR-EDDS

Flight info

Callsign TUI7GM
Flight time N/A
Altitude 36000
Route EPALO UM749 DIRMI UL613 KOR DCT XANIS DCT DIMIS DCT OVVER DCT RODON DCT NERRA DCT SIRMI DCT KULEN DCT UPETA DCT VEKEN DCT NANIT DCT ERKIR DCT KPT/N0439F340 L856 NEGRA T732 GARMO T125 REUTL REUTL1W
Aircraft B738/M-SDE2E3FGHIRWXY/LB1

Departure

Time 2026-05-04 14:00
Airport Heraklion International Nikos Kazantzakis Airport (LGIR)

Arrival

Time N/A
Airport Stuttgart Airport (EDDS)
Time Latitude Longitude Altitude Speed Heading
2026-05-04 13:33 35.33809 25.17543 90 ft 0 kts 316°
2026-05-04 13:55 35.33810 25.17543 90 ft 1 kts 316°
2026-05-04 13:56 35.33830 25.17521 90 ft 5 kts 321°
2026-05-04 13:56 35.33869 25.17503 91 ft 7 kts
2026-05-04 13:56 35.33910 25.17599 92 ft 6 kts 85°
2026-05-04 13:57 35.33913 25.17645 91 ft 4 kts 85°
2026-05-04 13:57 35.33915 25.17675 91 ft 3 kts 85°
2026-05-04 13:58 35.33873 25.18086 91 ft 30 kts 94°
2026-05-04 13:58 35.33840 25.18564 93 ft 27 kts 95°
2026-05-04 13:58 35.33824 25.18783 90 ft 25 kts 95°
2026-05-04 13:59 35.33840 25.18962 89 ft 18 kts 58°
2026-05-04 13:59 35.33893 25.19029 88 ft 4 kts
2026-05-04 13:59 35.33912 25.18937 90 ft 26 kts 275°
2026-05-04 14:00 35.33948 25.18417 91 ft 95 kts 275°
2026-05-04 14:00 35.34108 25.15972 512 ft 172 kts 276°
2026-05-04 14:00 35.34364 25.14524 1261 ft 183 kts 302°
2026-05-04 14:01 35.35347 25.13548 1976 ft 190 kts 339°
2026-05-04 14:01 35.36648 25.13148 2588 ft 194 kts 344°
2026-05-04 14:01 35.39347 25.12438 3560 ft 213 kts 344°
2026-05-04 14:02 35.40814 25.12016 4055 ft 219 kts 344°
2026-05-04 14:02 35.42309 25.11558 4665 ft 222 kts 343°
2026-05-04 14:02 35.43860 25.11058 5047 ft 238 kts 343°
2026-05-04 14:02 35.45479 25.10515 5764 ft 243 kts 343°
2026-05-04 14:03 35.47027 25.09761 6702 ft 239 kts 327°
2026-05-04 14:03 35.48382 25.08561 7445 ft 244 kts 324°
2026-05-04 14:03 35.49758 25.07293 8152 ft 250 kts 323°
2026-05-04 14:03 35.51154 25.06003 8884 ft 254 kts 323°
2026-05-04 14:04 35.54035 25.03353 10323 ft 264 kts 324°
2026-05-04 14:04 35.55559 25.01959 10592 ft 285 kts 324°
2026-05-04 14:04 35.57214 25.00448 10774 ft 307 kts 324°
2026-05-04 14:05 35.60833 24.97151 11547 ft 334 kts 324°
2026-05-04 14:05 35.62707 24.95445 12251 ft 337 kts 324°
2026-05-04 14:05 35.64601 24.93720 12968 ft 339 kts 324°
2026-05-04 14:06 35.66509 24.91983 13650 ft 343 kts 324°
2026-05-04 14:06 35.68442 24.90224 14293 ft 347 kts 324°
2026-05-04 14:06 35.70357 24.88480 14974 ft 347 kts 324°
2026-05-04 14:06 35.72302 24.86708 15684 ft 348 kts 323°
2026-05-04 14:07 35.74246 24.84936 16345 ft 349 kts 323°
2026-05-04 14:07 35.76205 24.83150 16980 ft 352 kts 323°
2026-05-04 14:07 35.78176 24.81352 17612 ft 354 kts 323°
2026-05-04 14:07 35.80159 24.79541 18247 ft 356 kts 323°
2026-05-04 14:08 35.82152 24.77721 18811 ft 358 kts 323°
2026-05-04 14:08 35.84154 24.75891 19400 ft 357 kts 323°
2026-05-04 14:08 35.85477 24.74681 19831 ft 357 kts 323°
2026-05-04 14:08 35.87472 24.72856 20408 ft 357 kts 323°
2026-05-04 14:09 35.91468 24.69196 21519 ft 359 kts 323°
2026-05-04 14:09 35.93471 24.67360 22072 ft 359 kts 323°
2026-05-04 14:10 35.97434 24.63724 23129 ft 360 kts 323°
2026-05-04 14:10 35.98317 24.62913 23348 ft 361 kts 323°
2026-05-04 14:10 36.00289 24.61102 24148 ft 347 kts 322°
2026-05-04 14:10 36.00949 24.60495 24300 ft 349 kts 322°
2026-05-04 14:11 36.01482 24.60005 24289 ft 353 kts 322°
2026-05-04 14:11 36.05548 24.56263 24612 ft 368 kts 322°
2026-05-04 14:11 36.07584 24.54388 24972 ft 370 kts 323°
2026-05-04 14:12 36.09653 24.52481 25358 ft 371 kts 322°
2026-05-04 14:12 36.11729 24.50567 25708 ft 373 kts 322°
2026-05-04 14:12 36.14764 24.47717 26217 ft 369 kts 320°
2026-05-04 14:13 36.16725 24.45651 26487 ft 374 kts 320°
2026-05-04 14:13 36.18783 24.43631 26647 ft 380 kts 323°
2026-05-04 14:13 36.20928 24.41700 26953 ft 382 kts 324°
2026-05-04 14:13 36.23097 24.39794 27308 ft 383 kts 324°
2026-05-04 14:14 36.25270 24.37876 27623 ft 384 kts 323°
2026-05-04 14:14 36.29621 24.33960 28193 ft 388 kts 323°
2026-05-04 14:14 36.31804 24.31963 28473 ft 390 kts 323°